Location: Unspecified
(33.2407°S, 0.0000°E)
Time: 11:56:51
(UTC+00:00)

Envisat - Pass Details

Date: 19 May 2019
Orbit: 764 x 766 km, 98.1° (Epoch: 25 June)

Event Time Altitude Azimuth Distance (km) Brightness Sun altitude
Rises 05:12:57 0° 61° (ENE) 3,229 7.6 -19.5°
Reaches altitude 10° 05:16:23 10° 85° (E) 2,313 6.7 -18.8°
Maximum altitude 05:18:53 14° 115° (ESE) 2,063 5.9 -18.3°
Drops below altitude 10° 05:21:24 10° 145° (SE) 2,327 5.8 -17.8°
Sets 05:24:51 0° 169° (S) 3,263 6.2 -17.0°
